Weather History for KOTH - November, 2010

Change the Weather History Date:

Tuesday, November 30, 2010

  Actual Average Record
Temperature  
Mean Temperature 48 °F 46 °F  
Max Temperature 52 °F 52 °F 68 °F (1903)
Min Temperature 43 °F 41 °F 28 °F (1985)
Degree Days  
Heating Degree Days 17 19  
Month to date heating degree days 508 487  
Since 1 July heating degree days 1499 1452  
Cooling Degree Days 0 0  
Month to date cooling degree days 0 0  
Year to date cooling degree days 3 2  
Moisture  
Dew Point 41 °F    
Average Humidity 77    
Maximum Humidity 86    
Minimum Humidity 70    
Precipitation  
Precipitation 0.50 in 0.41 in 2.45 in (1975)
Month to date precipitation 7.51 10.23  
Year to date precipitation 55.33 53.78  
Sea Level Pressure  
Sea Level Pressure 30.16 in    
Wind  
Wind Speed 11 mph (SSE)    
Max Wind Speed 16 mph    
Max Gust Speed 25 mph    
Visibility 10 miles    
Events      
T = Trace of Precipitation, MM = Missing Value Source: NWS Daily Summary

Daily Weather History Graph

Daily Weather History Graph

Search for Another Location

Airport or City:

Trip Planner

Search our weather history database for the weather conditions in past years. The results will help you decide how hot, cold, wet, or windy it might be!

Date:

Astronomy

Nov. 30, 2010 Rise Set
Actual Time 7:28 AM PST 4:42 PM PST
Civil Twilight 6:56 AM PST 5:14 PM PST
Nautical Twilight 6:21 AM PST 5:49 PM PST
Astronomical Twilight 5:46 AM PST 6:24 PM PST
Moon 1:43 AM PST (11/30) 1:22 PM PST (11/30)
Length of Visible Light 10h 17m
Length of Day
9h 13m
Waning Crescent, 28% of the Moon is Illuminated
Nov 30
Waning Crescent
Dec 5
New
Dec 13
First Quarter
Dec 21
Full
Dec 27
Last Quarter

Hourly Weather History & Observations

Time (PST) Temp. Windchill Dew Point Humidity Pressure Visibility Wind Dir Wind Speed Gust Speed Precip Events Conditions
12:15 AM 44.6 °F 38.8 °F 35.6 °F 71% 30.28 in 10.0 mi SSE 11.5 mph - N/A   Overcast
12:35 AM 44.6 °F 38.8 °F 35.6 °F 71% 30.27 in 10.0 mi SSE 11.5 mph - N/A   Overcast
12:55 AM 44.6 °F 39.2 °F 35.6 °F 71% 30.27 in 10.0 mi SSE 10.4 mph - N/A   Overcast
1:15 AM 44.6 °F 39.7 °F 35.6 °F 71% 30.26 in 10.0 mi SSE 9.2 mph - 0.01 in   Overcast
1:35 AM 44.6 °F 38.8 °F 35.6 °F 71% 30.25 in 10.0 mi SSE 11.5 mph - 0.01 in   Overcast
1:55 AM 44.6 °F 39.2 °F 35.6 °F 71% 30.25 in 10.0 mi SSE 10.4 mph - 0.01 in   Overcast
2:15 AM 44.6 °F 38.8 °F 35.6 °F 71% 30.25 in 10.0 mi SSE 11.5 mph - 0.01 in   Overcast
2:35 AM 44.6 °F 39.7 °F 35.6 °F 71% 30.25 in 10.0 mi SSE 9.2 mph - 0.01 in   Overcast
2:55 AM 44.6 °F 40.2 °F 35.6 °F 71% 30.25 in 10.0 mi SSE 8.1 mph - 0.01 in   Overcast
3:15 AM 44.6 °F 40.7 °F 37.4 °F 76% 30.25 in 7.0 mi South 6.9 mph - N/A   Overcast
3:35 AM 42.8 °F 38.6 °F 37.4 °F 81% 30.25 in 5.0 mi South 6.9 mph - 0.01 in   Overcast
3:55 AM 42.8 °F 38.6 °F 37.4 °F 81% 30.24 in 10.0 mi SSE 6.9 mph - 0.02 in   Overcast
4:15 AM 44.6 °F 41.4 °F 37.4 °F 76% 30.23 in 10.0 mi SSE 5.8 mph - N/A   Overcast
4:35 AM 44.6 °F 38.8 °F 37.4 °F 76% 30.22 in 10.0 mi SSE 11.5 mph - N/A   Overcast
4:55 AM 44.6 °F 38.8 °F 37.4 °F 76% 30.21 in 10.0 mi SSE 11.5 mph - 0.01 in   Overcast
5:15 AM 44.6 °F 40.2 °F 37.4 °F 76% 30.21 in 10.0 mi SSE 8.1 mph - 0.02 in   Overcast
5:35 AM 46.4 °F 41.5 °F 39.2 °F 76% 30.21 in 10.0 mi SSE 10.4 mph - 0.02 in   Overcast
5:55 AM 46.4 °F 41.5 °F 39.2 °F 76% 30.20 in 10.0 mi SSE 10.4 mph - 0.02 in   Overcast
6:15 AM 46.4 °F 40.4 °F 39.2 °F 76% 30.18 in 10.0 mi SE 13.8 mph - N/A   Overcast
6:35 AM 46.4 °F 40.4 °F 39.2 °F 76% 30.17 in 10.0 mi SE 13.8 mph - 0.01 in   Overcast
6:55 AM 46.4 °F 40.4 °F 39.2 °F 76% 30.17 in 10.0 mi SSE 13.8 mph - 0.02 in   Overcast
7:15 AM 46.4 °F 40.1 °F 39.2 °F 76% 30.17 in 10.0 mi SSE 15.0 mph - 0.01 in   Overcast
7:35 AM 48.2 °F - 39.2 °F 71% 30.16 in 10.0 mi SSE 15.0 mph - 0.01 in   Overcast
7:55 AM 48.2 °F - 39.2 °F 71% 30.17 in 10.0 mi SSE 12.7 mph - 0.01 in   Overcast
8:15 AM 48.2 °F - 39.2 °F 71% 30.17 in 10.0 mi SSE 10.4 mph - 0.01 in   Overcast
8:35 AM 48.2 °F - 41.0 °F 76% 30.16 in 10.0 mi SSE 10.4 mph - N/A   Overcast
8:55 AM 48.2 °F - 41.0 °F 76% 30.16 in 10.0 mi SSE 12.7 mph - 0.01 in   Overcast
9:15 AM 48.2 °F - 41.0 °F 76% 30.15 in 10.0 mi SSE 13.8 mph - N/A   Overcast
9:35 AM 48.2 °F - 42.8 °F 82% 30.15 in 10.0 mi SSE 12.7 mph 18.4 mph N/A   Overcast
9:55 AM 48.2 °F - 42.8 °F 82% 30.15 in 10.0 mi SSE 13.8 mph 18.4 mph N/A   Overcast
10:15 AM 50.0 °F - 42.8 °F 76% 30.16 in 10.0 mi South 12.7 mph - 0.01 in   Overcast
10:35 AM 50.0 °F - 42.8 °F 76% 30.15 in 10.0 mi SSE 16.1 mph 20.7 mph 0.01 in   Overcast
10:55 AM 50.0 °F - 42.8 °F 76% 30.15 in 10.0 mi SSE 17.3 mph 23.0 mph 0.01 in   Overcast
11:15 AM 50.0 °F - 42.8 °F 76% 30.15 in 10.0 mi South 17.3 mph 23.0 mph 0.01 in   Overcast
11:35 AM 50.0 °F - 42.8 °F 76% 30.13 in 10.0 mi SSE 19.6 mph 27.6 mph 0.02 in   Overcast
11:55 AM 51.8 °F - 42.8 °F 71% 30.14 in 10.0 mi South 16.1 mph 25.3 mph 0.03 in   Overcast
12:15 PM 51.8 °F - 44.6 °F 76% 30.13 in 10.0 mi SSE 17.3 mph 20.7 mph 0.01 in   Overcast
12:35 PM 51.8 °F - 44.6 °F 76% 30.12 in 10.0 mi South 13.8 mph - 0.01 in   Mostly Cloudy
12:55 PM 51.8 °F - 44.6 °F 76% 30.12 in 10.0 mi South 13.8 mph - 0.02 in   Mostly Cloudy
1:15 PM 51.8 °F - 44.6 °F 76% 30.11 in 10.0 mi SSE 16.1 mph 25.3 mph 0.02 in   Overcast
1:35 PM 51.8 °F - 44.6 °F 76% 30.10 in 10.0 mi SSE 15.0 mph 21.9 mph 0.02 in   Overcast
1:55 PM 51.8 °F - 44.6 °F 76% 30.09 in 10.0 mi SSE 16.1 mph 21.9 mph 0.02 in   Overcast
2:15 PM 51.8 °F - 44.6 °F 76% 30.09 in 10.0 mi SSE 13.8 mph - N/A   Overcast
2:35 PM 51.8 °F - 44.6 °F 76% 30.08 in 10.0 mi SSE 16.1 mph 19.6 mph N/A   Overcast
2:55 PM 51.8 °F - 44.6 °F 76% 30.10 in 10.0 mi South 11.5 mph - 0.05 in   Overcast
3:15 PM 51.8 °F - 44.6 °F 76% 30.09 in 10.0 mi SSE 11.5 mph - 0.02 in   Overcast
3:35 PM 51.8 °F - 44.6 °F 76% 30.09 in 10.0 mi SSE 11.5 mph - 0.04 in   Overcast
3:55 PM 50.0 °F - 44.6 °F 82% 30.09 in 10.0 mi SE 11.5 mph 18.4 mph 0.04 in   Overcast
4:15 PM 50.0 °F - 44.6 °F 82% 30.10 in 10.0 mi SE 8.1 mph - 0.02 in   Overcast
4:35 PM 50.0 °F - 44.6 °F 82% 30.10 in 5.0 mi SE 9.2 mph - 0.05 in   Overcast
4:55 PM 48.2 °F - 44.6 °F 87% 30.10 in 7.0 mi SE 10.4 mph - N/A   Overcast
5:15 PM 48.2 °F - 44.6 °F 87% 30.09 in 8.0 mi SSE 10.4 mph - 0.06 in   Overcast
5:35 PM 48.2 °F - 44.6 °F 87% 30.09 in 10.0 mi SSE 9.2 mph - 0.07 in   Overcast
5:55 PM 48.2 °F - 44.6 °F 87% 30.09 in 10.0 mi SSE 12.7 mph - 0.07 in   Overcast
6:15 PM 48.2 °F - 44.6 °F 87% 30.09 in 8.0 mi SE 10.4 mph - N/A   Overcast
6:35 PM 48.2 °F - 44.6 °F 87% 30.09 in 9.0 mi SE 10.4 mph - 0.02 in   Overcast
6:55 PM 48.2 °F - 44.6 °F 87% 30.09 in 9.0 mi SE 9.2 mph - 0.03 in   Overcast
7:15 PM 48.2 °F - 44.6 °F 87% 30.10 in 8.0 mi ESE 3.5 mph - 0.01 in   Overcast
7:35 PM 48.2 °F - 44.6 °F 87% 30.10 in 8.0 mi SE 3.5 mph - 0.01 in   Overcast
7:55 PM 48.2 °F - 42.8 °F 82% 30.10 in 7.0 mi SE 6.9 mph - 0.02 in   Overcast
8:15 PM 48.2 °F - 44.6 °F 87% 30.10 in 10.0 mi SE 5.8 mph - N/A   Overcast
8:35 PM 48.2 °F - 44.6 °F 87% 30.10 in 10.0 mi SSE 4.6 mph - N/A   Overcast
8:55 PM 48.2 °F - 44.6 °F 87% 30.11 in 10.0 mi South 3.5 mph - N/A   Overcast
9:15 PM 50.0 °F - 44.6 °F 82% 30.11 in 10.0 mi SW 11.5 mph 19.6 mph N/A   Overcast
9:35 PM 51.8 °F - 44.6 °F 76% 30.11 in 10.0 mi SW 12.7 mph - N/A   Mostly Cloudy
9:55 PM 51.8 °F - 44.6 °F 76% 30.11 in 9.0 mi WSW 13.8 mph 20.7 mph N/A   Overcast
10:15 PM 50.0 °F - 44.6 °F 82% 30.12 in 10.0 mi Calm Calm - N/A   Overcast
10:35 PM 51.8 °F - 44.6 °F 76% 30.11 in 10.0 mi SW 13.8 mph - N/A   Overcast
10:55 PM 51.8 °F - 44.6 °F 76% 30.12 in 10.0 mi SSW 16.1 mph 23.0 mph N/A   Overcast
11:15 PM 51.8 °F - 42.8 °F 71% 30.12 in 10.0 mi SSW 19.6 mph 27.6 mph N/A   Overcast
11:35 PM 51.8 °F - 42.8 °F 71% 30.12 in 10.0 mi SSW 17.3 mph 29.9 mph 0.01 in   Overcast
11:55 PM 51.8 °F - 42.8 °F 71% 30.12 in 6.0 mi SSW 18.4 mph 29.9 mph 0.01 in   Overcast